DW4248 Weather Reports


time (UTC)temp
F
wind
direction
speed
knots
gust
knots
rain 1hr
in
rain 24hr
in
rain mn
in
humidity
%
barometer
mb
20260505011824 76 138 1.7 4.3 0.00 0.25 0.25 52 1002.1
20260505010903 77 145 1.7 4.3 0.00 0.25 0.25 52 1002.0
20260505010004 77 140 1.7 3.5 0.00 0.25 0.25 52 1002.0
20260505005424 77 136 0.9 3.5 0.00 0.25 0.25 51 1001.9
20260505004503 77 138 0.9 3.5 0.00 0.25 0.25 51 1001.7
20260505003603 78 133 1.7 6.1 0.00 0.25 0.25 50 1001.6
20260505002703 78 155 1.7 6.1 0.00 0.25 0.25 49 1001.6
20260505001803 79 158 0.9 9.6 0.00 0.25 0.25 49 1001.6
20260505000903 79 162 0.9 3.5 0.00 0.25 0.25 49 1001.6
20260505000004 79 153 1.7 11.3 0.00 0.25 0.25 48 1001.6
20260504235424 80 138 1.7 11.3 0.00 0.25 0.25 48 1001.6
20260504234503 80 167 1.7 8.7 0.00 0.25 0.25 47 1001.6
20260504233603 80 145 1.7 9.6 0.00 0.25 0.25 47 1001.6
20260504232703 80 144 1.7 11.3 0.00 0.25 0.25 48 1001.7
20260504231803 80 167 0.9 6.1 0.00 0.25 0.25 47 1001.9
20260504230903 80 177 1.7 8.7 0.00 0.25 0.25 48 1001.9
20260504230003 80 160 1.7 9.6 0.00 0.25 0.25 47 1002.0
20260504225403 80 153 1.7 7.8 0.00 0.25 0.25 48 1002.1
20260504224503 78 142 0.9 7.8 0.00 0.25 0.25 57 1002.1
20260504223603 78 144 0.0 3.5 0.00 0.25 0.25 60 1002.2
20260504222703 78 140 0.0 3.5 0.00 0.25 0.25 60 1002.3
20260504221803 77 142 0.9 3.5 0.00 0.25 0.25 61 1002.5
20260504220924 77 134 0.9 5.2 0.00 0.25 0.25 59 1002.4
20260504220003 78 138 0.9 7.0 0.00 0.25 0.25 59 1002.3
20260504215424 77 136 0.9 6.1 0.00 0.25 0.25 58 1002.3
20260504214503 78 139 0.9 7.0 0.00 0.25 0.25 59 1002.4
20260504213603 78 137 0.9 9.6 0.00 0.25 0.25 61 1002.4
20260504212703 77 138 0.9 7.0 0.00 0.25 0.25 65 1002.5
20260504211803 77 135 0.0 2.6 0.00 0.25 0.25 64 1002.6
20260504210903 76 136 0.9 4.3 0.00 0.25 0.25 65 1002.6
20260504210004 76 144 0.9 4.3 0.00 0.25 0.25 63 1002.7
20260504205403 76 140 0.0 2.6 0.00 0.25 0.25 65 1003.0
20260504204503 76 135 0.9 5.2 0.00 0.25 0.25 66 1003.1
20260504203603 75 142 0.9 5.2 0.00 0.25 0.25 67 1003.2
20260504202724 75 138 0.9 6.1 0.00 0.25 0.25 66 1003.2
20260504201824 74 142 0.9 7.0 0.00 0.25 0.25 72 1003.3
20260504200903 73 132 0.9 6.1 0.00 0.25 0.25 74 1003.3
20260504200003 72 141 1.7 6.1 0.00 0.25 0.25 75 1003.2
20260504195403 72 140 1.7 7.8 0.00 0.25 0.25 77 1003.2
20260504194524 70 134 0.9 3.5 0.00 0.25 0.25 82 1003.3
20260504193624 69 144 0.9 6.1 0.00 0.25 0.25 83 1003.7
20260504192703 68 139 0.0 1.7 0.00 0.25 0.25 87 1003.9
20260504191803 66 144 0.9 6.1 0.00 0.25 0.25 89 1003.7
20260504190903 64 141 1.7 7.0 0.00 0.25 0.25 88 1003.6
20260504190004 63 136 0.0 6.1 0.01 0.25 0.25 91 1003.8
20260504185403 63 134 0.0 0.9 0.01 0.25 0.25 90 1004.8
20260504184524 63 134 0.0 0.9 0.02 0.25 0.25 89 1005.2
20260504183624 63 143 0.0 0.9 0.03 0.25 0.25 90 1005.2
20260504182703 63 146 0.0 2.6 0.07 0.25 0.25 89 1004.9
20260504181803 62 142 0.9 6.1 0.13 0.25 0.25 88 1004.8
20260504180903 61 143 0.9 6.1 0.16 0.25 0.25 89 1004.9
20260504180024 61 144 2.6 8.7 0.15 0.24 0.24 89 1004.7
20260504175403 61 143 1.7 7.0 0.16 0.24 0.24 90 1004.7
20260504174503 61 130 0.9 1.7 0.17 0.23 0.23 91 1005.7
20260504173624 61 130 0.0 1.7 0.19 0.22 0.23 91 1005.5
20260504172703 61 131 0.0 0.9 0.18 0.18 0.18 90 1005.4
20260504171803 61 130 0.9 1.7 0.12 0.12 0.12 87 1005.5
20260504170903 62 148 0.0 1.7 0.09 0.09 0.09 86 1005.7
20260504150924 68 137 0.9 1.7 0.00 0.00 0.00 62 1007.1
20260504140903 68 144 1.7 6.1 0.00 0.00 0.00 64 1006.9
20260504081803 63 0 0.0 0.0 0.00 0.00 0.00 70 1008.0
20260504080903 63 0 0.0 0.0 0.00 0.00 0.00 69 1007.9
20260504045403 68 136 1.7 4.3 0.00 0.00 0.00 56 1007.5
20260504044504 68 148 1.7 4.3 0.00 0.00 0.00 56 1007.6
20260504043603 68 163 0.9 6.1 0.00 0.00 0.00 55 1007.8
20260504042703 69 148 0.9 8.7 0.00 0.00 0.00 54 1008.2
20260504041803 69 152 0.9 5.2 0.00 0.00 0.00 54 1008.4
20260504040924 69 181 1.7 5.2 0.00 0.00 0.00 54 1008.5
20260504040003 69 159 0.9 2.6 0.00 0.00 0.00 54 1008.0
20260504035403 69 134 0.9 3.5 0.00 0.00 0.00 54 1007.9
20260504034503 69 147 0.9 5.2 0.00 0.00 0.00 55 1008.7
20260504033603 69 138 0.9 2.6 0.00 0.00 0.00 53 1008.9
20260504032703 69 136 0.9 1.7 0.00 0.00 0.00 53 1009.1
20260504031803 69 141 0.9 2.6 0.00 0.00 0.00 53 1009.1
20260504030903 69 127 0.0 0.9 0.00 0.00 0.00 53 1009.1
20260504030003 70 133 0.9 1.7 0.00 0.00 0.00 52 1009.0
20260504025403 70 139 0.9 1.7 0.00 0.00 0.00 51 1008.9
20260504024503 70 127 0.9 1.7 0.00 0.00 0.00 51 1009.0
20260504023603 71 122 0.0 2.6 0.00 0.00 0.00 51 1009.1
20260504022703 71 132 0.9 3.5 0.00 0.00 0.00 50 1009.0
20260504021803 72 326 0.0 4.3 0.00 0.00 0.00 50 1009.0
20260504020903 72 355 0.9 4.3 0.00 0.00 0.00 48 1008.9
20260504020004 72 146 0.9 4.3 0.00 0.00 0.00 48 1008.5
20260504015403 72 149 0.9 4.3 0.00 0.00 0.00 47 1008.6
20260504014503 72 133 0.9 2.6 0.00 0.00 0.00 47 1008.5
20260504013603 72 134 0.9 1.7 0.00 0.00 0.00 47 1008.4
20260504012703 72 133 0.9 1.7 0.00 0.00 0.00 47 1008.4